Home > Weather > Viana do Castelo > Past weeks

Flag for Portugal Weather for the Past 2 Weeks in Viana do Castelo, Portugal

Now
52 °F

Sprinkles. Partly cloudy.


Feels Like: 48 °F
Forecast: N/A
Wind: 10 mph from West

Location: Porto / Pedras Rubras

Current Time: Feb 6, 2016 at 7:43:20 PM

Latest Report: Feb 6, 2016 at 7:00 PM


Visibility: N/A

Pressure: 29.89 "Hg

Humidity: 82%

Dew point: 46 °F

Location of Viana do CasteloLocation

Historic Weather in Viana do Castelo — Graph

°F

Viana do Castelo Temperature Yesterday

Maximum temperature yesterday: 64 °F (at 2:30 PM)
Minimum temperature yesterday: 43 °F (at 3:00 AM)
Average temperature yesterday: 51 °F

High & Low Weather Summary for the Past Weeks

 TemperatureHumidityPressure
High72 °F (Jan 24, 1:30 PM)100% (Jan 22, 6:00 PM)30.66 "Hg (Jan 22, 6:00 PM)
Low39 °F (Jan 30, 4:00 AM)34% (Feb 4, 4:30 PM)29.83 "Hg (Feb 6, 4:30 PM)
Average53 °F83%30.42 "Hg
* Reported Jan 22 6:00 PM — Feb 6 6:30 PM, Viana do Castelo, Weather by CustomWeather, © 2016

Note: Actual official high and low records may vary slightly from our data, if they occured in-between our weather recording intervals... More about our weather records

Advertising

Viana do Castelo Weather History for the Previous 24 Hours

 ConditionsComfort  
Time TempWeatherWind HumidityBarometerVisibility
6:30 PM
Sat, Feb 6
50 °FOvercast.5 mph94%29.89 "HgN/A
6:00 PM50 °FLight rain. Mostly cloudy.10 mph94%29.89 "Hg6 mi
5:30 PM50 °FRain. Fog.16 mph94%29.86 "Hg2 mi
5:00 PM55 °FRain. Fog.24 mph94%29.83 "Hg2 mi
4:30 PM55 °FLight rain. Mostly cloudy.25 mph94%29.83 "Hg4 mi
4:00 PM55 °FLight rain. Fog.22 mph94%29.86 "Hg3 mi
3:30 PM55 °FLight rain. Mostly cloudy.22 mph94%29.89 "Hg4 mi
3:00 PM55 °FRain. Fog.26 mph88%29.89 "Hg2 mi
2:30 PM55 °FLight rain. Mostly cloudy.26 mph88%29.92 "Hg5 mi
2:00 PM57 °FBroken clouds.24 mph82%29.95 "HgN/A
1:30 PM57 °FMore clouds than sun.24 mph82%29.98 "HgN/A
1:00 PM57 °FOvercast.22 mph82%30.01 "HgN/A
12:30 PM57 °FPartly sunny.23 mph82%30.01 "HgN/A
12:00 PM55 °FPartly sunny.22 mph88%30.04 "HgN/A
11:30 AM55 °FOvercast.21 mph88%30.07 "HgN/A
11:00 AM55 °FPartly sunny.16 mph88%30.07 "HgN/A
10:30 AM55 °FPartly sunny.17 mph88%30.07 "HgN/A
10:00 AM54 °FPartly sunny.17 mph88%30.07 "HgN/A
9:30 AM54 °FScattered clouds.18 mph88%30.04 "HgN/A
9:00 AM54 °FLight rain. Mostly cloudy.12 mph88%30.09 "HgN/A
8:30 AM52 °FCloudy.9 mph88%30.09 "HgN/A
8:00 AM52 °FBroken clouds.15 mph88%30.09 "HgN/A
7:30 AM50 °FPassing clouds.12 mph82%30.09 "HgN/A
7:00 AM50 °FPartly cloudy.12 mph82%30.09 "HgN/A
6:30 AM50 °FPartly cloudy.10 mph82%30.09 "HgN/A
6:00 AM50 °FPartly cloudy.8 mph82%30.09 "HgN/A
5:30 AM48 °FPartly cloudy.9 mph87%30.09 "HgN/A
5:00 AM46 °FPartly cloudy.9 mph93%30.12 "HgN/A
4:00 AM48 °FPassing clouds.8 mph82%30.12 "HgN/A
3:30 AM48 °FPartly cloudy.9 mph82%30.12 "HgN/A
3:00 AM48 °FPassing clouds.10 mph82%30.15 "HgN/A
2:30 AM46 °FPassing clouds.7 mph87%30.15 "HgN/A
2:00 AM46 °FPassing clouds.8 mph87%30.18 "HgN/A
1:30 AM46 °FPassing clouds.8 mph87%30.18 "HgN/A
12:30 AM46 °FClear.8 mph87%30.18 "Hg10 mi
12:00 AM46 °FClear.9 mph82%30.21 "Hg10 mi
11:30 PM
Fri, Feb 5
46 °FClear.9 mph82%30.21 "Hg10 mi
11:00 PM48 °FPassing clouds.6 mph76%30.21 "HgN/A
10:30 PM48 °FClear.5 mph76%30.21 "Hg10 mi
10:00 PM50 °FPassing clouds.7 mph71%30.21 "HgN/A
9:30 PM45 °FClear.No wind87%30.21 "Hg10 mi
9:00 PM46 °FClear.No wind76%30.21 "Hg10 mi
8:30 PM46 °FPassing clouds.3 mph82%30.21 "HgN/A
8:00 PM48 °FClear.No wind76%30.21 "Hg10 mi
7:30 PM48 °FClear.2 mph76%30.21 "Hg10 mi
7:00 PM50 °FClear.2 mph71%30.21 "Hg10 mi
Weather by CustomWeather, © 2016

See weather overviewHow to use our weather pages